• In Belarus
  • List of Countries
  • For 7 days
  • Water Temperature
  • Satellite Maps
  • Weather Map
  • Weather Widgets
  • user-avatar
    Login

    Hourly Weather Jaú

    Today, 22 April, Sunday

    Time Temperature Precipitation Wind Pressure Humidity
    00:00 +32°C° 0 mm 6 mps 754 mmHg 34%
    01:00 +32°C° 0 mm 5 mps 754 mmHg 35%
    02:00 +30°C° 0 mm 5 mps 753 mmHg 35%
    03:00 +30°C° 0 mm 6 mps 753 mmHg 37%
    04:00 +30°C° 0 mm 6 mps 753 mmHg 35%
    05:00 +30°C° 0 mm 6 mps 754 mmHg 33%
    06:00 +30°C° 0 mm 6 mps 754 mmHg 31%
    07:00 +33°C° 0 mm 6 mps 754 mmHg 26%
    08:00 +35°C° 0 mm 5 mps 754 mmHg 22%
    09:00 +37°C° 0 mm 5 mps 754 mmHg 17%
    10:00 +40°C° 0 mm 5 mps 754 mmHg 15%
    11:00 +42°C° 0 mm 6 mps 754 mmHg 13%
    12:00 +45°C° 0 mm 6 mps 754 mmHg 11%
    13:00 +45°C° 0 mm 6 mps 753 mmHg 11%
    14:00 +46°C° 0 mm 6 mps 753 mmHg 11%
    15:00 +46°C° 0 mm 6 mps 752 mmHg 11%
    16:00 +43°C° 0 mm 7 mps 753 mmHg 18%
    17:00 +40°C° 0 mm 7 mps 753 mmHg 25%
    18:00 +37°C° 0 mm 8 mps 754 mmHg 32%
    19:00 +36°C° 0 mm 7 mps 754 mmHg 32%
    20:00 +35°C° 0 mm 6 mps 754 mmHg 32%
    21:00 +35°C° 0 mm 5 mps 754 mmHg 33%
    22:00 +35°C° 0 mm 5 mps 754 mmHg 34%
    23:00 +34°C° 0 mm 5 mps 754 mmHg 34%

    Tomorrow, 23 April, Monday

    Time Temperature Precipitation Wind Pressure Humidity
    00:00 +34°C° 0 mm 5 mps 754 mmHg 35%
    01:00 +33°C° 0 mm 5 mps 754 mmHg 37%
    02:00 +33°C° 0 mm 5 mps 754 mmHg 38%
    03:00 +33°C° 0 mm 5 mps 754 mmHg 40%
    04:00 +33°C° 0.1 mm 5 mps 754 mmHg 39%
    05:00 +33°C° 0.1 mm 5 mps 755 mmHg 39%
    06:00 +33°C° 0.1 mm 5 mps 755 mmHg 39%
    07:00 +34°C° 0 mm 5 mps 755 mmHg 36%
    08:00 +34°C° 0 mm 5 mps 756 mmHg 32%
    09:00 +35°C° 0 mm 6 mps 756 mmHg 29%
    10:00 +36°C° 0 mm 6 mps 756 mmHg 28%
    11:00 +38°C° 0 mm 6 mps 755 mmHg 27%
    12:00 +39°C° 0 mm 7 mps 755 mmHg 25%
    13:00 +39°C° 0 mm 6 mps 754 mmHg 25%
    14:00 +39°C° 0 mm 6 mps 754 mmHg 25%
    15:00 +39°C° 0 mm 5 mps 753 mmHg 24%
    16:00 +39°C° 0 mm 6 mps 753 mmHg 25%
    17:00 +38°C° 0 mm 6 mps 753 mmHg 26%
    18:00 +36°C° 0 mm 6 mps 753 mmHg 28%
    19:00 +35°C° 0 mm 6 mps 754 mmHg 32%
    20:00 +34°C° 0 mm 5 mps 755 mmHg 37%
    21:00 +33°C° 0 mm 5 mps 756 mmHg 42%
    22:00 +32°C° 0 mm 7 mps 756 mmHg 47%
    23:00 +31°C° 0 mm 8 mps 756 mmHg 53%

    Day after tomorrow, 24 April, Tuesday

    Time Temperature Precipitation Wind Pressure Humidity
    00:00 +29°C° 0 mm 9 mps 756 mmHg 59%
    01:00 +28°C° 0 mm 9 mps 756 mmHg 60%
    02:00 +28°C° 0 mm 9 mps 756 mmHg 61%
    03:00 +28°C° 0 mm 8 mps 756 mmHg 63%
    04:00 +28°C° 0 mm 8 mps 757 mmHg 62%
    05:00 +28°C° 0 mm 7 mps 757 mmHg 61%
    06:00 +28°C° 0 mm 7 mps 757 mmHg 61%
    07:00 +29°C° 0 mm 7 mps 758 mmHg 53%
    08:00 +30°C° 0 mm 7 mps 758 mmHg 46%
    09:00 +33°C° 0 mm 6 mps 759 mmHg 38%
    10:00 +34°C° 0 mm 6 mps 759 mmHg 34%
    11:00 +34°C° 0 mm 6 mps 759 mmHg 30%
    12:00 +35°C° 0 mm 6 mps 759 mmHg 25%
    13:00 +35°C° 0 mm 6 mps 758 mmHg 25%
    14:00 +35°C° 0 mm 6 mps 758 mmHg 24%
    15:00 +35°C° 0 mm 7 mps 757 mmHg 24%
    16:00 +33°C° 0 mm 7 mps 757 mmHg 27%
    17:00 +32°C° 0 mm 7 mps 758 mmHg 30%
    18:00 +30°C° 0 mm 7 mps 758 mmHg 33%
    19:00 +30°C° 0 mm 6 mps 758 mmHg 36%
    20:00 +29°C° 0 mm 6 mps 758 mmHg 39%
    21:00 +28°C° 0 mm 6 mps 758 mmHg 42%
    22:00 +28°C° 0 mm 5 mps 758 mmHg 42%
    23:00 +28°C° 0 mm 5 mps 758 mmHg 43%

    25 April, Wednesday

    Time Temperature Precipitation Wind Pressure Humidity
    00:00 +28°C° 0 mm 4 mps 757 mmHg 43%
    01:00 +28°C° 0 mm 5 mps 757 mmHg 42%
    02:00 +28°C° 0 mm 6 mps 757 mmHg 40%
    03:00 +28°C° 0 mm 6 mps 757 mmHg 39%
    04:00 +28°C° 0.1 mm 7 mps 757 mmHg 39%
    05:00 +28°C° 0.1 mm 8 mps 758 mmHg 39%
    06:00 +28°C° 0.1 mm 9 mps 758 mmHg 39%
    07:00 +28°C° 0.3 mm 9 mps 759 mmHg 39%
    08:00 +28°C° 0.3 mm 8 mps 759 mmHg 39%
    09:00 +29°C° 0.3 mm 8 mps 759 mmHg 39%
    10:00 +29°C° 0.1 mm 7 mps 759 mmHg 39%
    11:00 +29°C° 0.1 mm 6 mps 759 mmHg 38%
    12:00 +30°C° 0.1 mm 5 mps 758 mmHg 38%
    13:00 +30°C° 0 mm 5 mps 757 mmHg 37%
    14:00 +30°C° 0 mm 5 mps 757 mmHg 36%
    15:00 +32°C° 0 mm 4 mps 756 mmHg 35%
    16:00 +32°C° 0 mm 4 mps 756 mmHg 37%
    17:00 +30°C° 0 mm 3 mps 756 mmHg 39%
    18:00 +30°C° 0 mm 3 mps 756 mmHg 42%
    19:00 +29°C° 0 mm 2 mps 756 mmHg 43%
    20:00 +29°C° 0 mm 2 mps 757 mmHg 45%
    21:00 +28°C° 0 mm 1 mps 757 mmHg 47%
    22:00 +28°C° 0 mm 1 mps 757 mmHg 46%
    23:00 +28°C° 0 mm 1 mps 756 mmHg 46%

    26 April, Thursday

    Time Temperature Precipitation Wind Pressure Humidity
    00:00 +27°C° 0 mm 1 mps 756 mmHg 46%
    01:00 +28°C° 0 mm 2 mps 755 mmHg 45%
    02:00 +28°C° 0 mm 2 mps 755 mmHg 44%
    03:00 +28°C° 0 mm 3 mps 755 mmHg 42%
    04:00 +28°C° 0 mm 3 mps 756 mmHg 42%
    05:00 +28°C° 0 mm 3 mps 756 mmHg 41%
    06:00 +28°C° 0 mm 3 mps 756 mmHg 41%
    07:00 +29°C° 0 mm 3 mps 757 mmHg 37%
    08:00 +30°C° 0 mm 3 mps 757 mmHg 34%
    09:00 +31°C° 0 mm 3 mps 757 mmHg 31%
    10:00 +33°C° 0 mm 3 mps 757 mmHg 29%
    11:00 +32°C° 0 mm 2 mps 757 mmHg 28%
    12:00 +34°C° 0 mm 2 mps 757 mmHg 26%
    13:00 +34°C° 0 mm 2 mps 756 mmHg 27%
    14:00 +34°C° 0 mm 2 mps 756 mmHg 27%
    15:00 +34°C° 0 mm 2 mps 755 mmHg 27%
    16:00 +34°C° 0 mm 3 mps 755 mmHg 27%
    17:00 +34°C° 0 mm 3 mps 755 mmHg 28%
    18:00 +33°C° 0 mm 4 mps 755 mmHg 29%
    19:00 +33°C° 0 mm 4 mps 755 mmHg 30%
    20:00 +33°C° 0 mm 3 mps 755 mmHg 32%
    21:00 +31°C° 0 mm 3 mps 755 mmHg 33%
    22:00 +31°C° 0 mm 2 mps 755 mmHg 34%
    23:00 +31°C° 0 mm 2 mps 754 mmHg 36%

    27 April, Friday

    Time Temperature Precipitation Wind Pressure Humidity
    00:00 +30°C° 0 mm 1 mps 754 mmHg 37%
    01:00 +30°C° 0.1 mm 1 mps 754 mmHg 38%
    02:00 +30°C° 0.1 mm 1 mps 754 mmHg 39%
    03:00 +29°C° 0.1 mm 1 mps 755 mmHg 41%
    04:00 +29°C° 0 mm 2 mps 755 mmHg 42%
    05:00 +30°C° 0 mm 3 mps 756 mmHg 43%
    06:00 +30°C° 0 mm 4 mps 756 mmHg 44%
    07:00 +32°C° 0 mm 4 mps 757 mmHg 41%
    08:00 +33°C° 0 mm 5 mps 757 mmHg 39%
    09:00 +34°C° 0 mm 5 mps 758 mmHg 36%
    10:00 +34°C° 0 mm 6 mps 758 mmHg 37%
    11:00 +34°C° 0 mm 6 mps 757 mmHg 38%
    12:00 +34°C° 0 mm 6 mps 757 mmHg 39%
    13:00 +34°C° 0 mm 5 mps 757 mmHg 39%
    14:00 +34°C° 0 mm 5 mps 756 mmHg 40%
    15:00 +34°C° 0 mm 4 mps 756 mmHg 40%
    16:00 +33°C° 0 mm 4 mps 756 mmHg 40%
    17:00 +33°C° 0 mm 4 mps 756 mmHg 41%
    18:00 +33°C° 0 mm 4 mps 756 mmHg 41%
    19:00 +31°C° 0 mm 3 mps 756 mmHg 42%
    20:00 +31°C° 0 mm 3 mps 756 mmHg 42%
    21:00 +31°C° 0 mm 2 mps 756 mmHg 43%
    22:00 +31°C° 0 mm 2 mps 756 mmHg 43%
    23:00 +30°C° 0 mm 2 mps 755 mmHg 43%
    Show more